GEESAT-6 11

Last updated on Sat Oct 25 2025 00:02:05 GMT+0000 (Coordinated Universal Time)

1 65723U 25214M 25297.67004029 .00003996 00000+0 47096-3 0 9995 2 65723 49.9841 320.4199 0010671 51.6862 308.5036 14.86620815 4539
UTC large
Height (km)
Speed (km/s)
/
Latitude / Longitude
Inclination (degrees)
Orbital Period (minutes)
Azimuth
Elevation
Range (km)
Doppler Factor

Next 0 passes for location: London (51.5072 / 0.1276)

Sorry there are no passes over London.
GEESAT-6 11